Weather History for Brownwood, TX

Change the Weather History Date:

Tuesday, January 8, 2013

  Actual Average (KABI) Record (KABI)
Temperature  
Mean Temperature 42 °F 44 °F  
Max Temperature 48 °F 56 °F 88 °F (1969)
Min Temperature 35 °F 33 °F -3 °F (1886)
Degree Days  
Heating Degree Days 24 21  
Month to date heating degree days 168  
Since 1 July heating degree days 1213  
Cooling Degree Days 0 0  
Month to date cooling degree days 0  
Year to date cooling degree days 0  
Moisture  
Dew Point 43 °F    
Average Humidity 94    
Maximum Humidity 100    
Minimum Humidity 81    
Precipitation  
Precipitation 1.12 in 0.03 in 0.97 in (1981)
Month to date precipitation 0.24  
Year to date precipitation 0.24  
Sea Level Pressure  
Sea Level Pressure 30.00 in    
Wind  
Wind Speed 3 mph (NE)    
Max Wind Speed 10 mph    
Max Gust Speed -    
Visibility 5 miles    
Events Rain , Thunderstorm    
T = Trace of Precipitation, MM = Missing Value Source: NWS Daily Summary

Daily Weather History Graph

Daily Weather History Graph

Search for Another Location

Airport:

Trip Planner

Search our weather history database for the weather conditions in past years. The results will help you decide how hot, cold, wet, or windy it might be!

Date:

Astronomy

Jan. 08, 2013 Rise Set
Actual Time 7:36 AM CST 5:48 PM CST
Civil Twilight 7:10 AM CST 6:15 PM CST
Nautical Twilight 6:39 AM CST 6:45 PM CST
Astronomical Twilight 6:10 AM CST 7:15 PM CST
Moon 4:12 AM CST (1/8) 2:52 PM CST (1/8)
Length of Visible Light 11h 05m
Length of Day
10h 12m
Waning Crescent, 13% of the Moon is Illuminated
Jan 8
Waning Crescent
Jan 11
New
Jan 18
First Quarter
Jan 26
Full
Feb 3
Last Quarter

Hourly Weather History & Observations

Time (CST) Temp. Windchill Dew Point Humidity Pressure Visibility Wind Dir Wind Speed Gust Speed Precip Events Conditions
12:15 AM 37.4 °F - 32.0 °F 81% 30.07 in 10.0 mi Calm Calm - N/A   Overcast
12:35 AM 35.6 °F 32.8 °F 32.0 °F 87% 30.07 in 10.0 mi NNW 3.5 mph - N/A   Overcast
12:55 AM 35.6 °F - 32.0 °F 87% 30.06 in 10.0 mi Calm Calm - N/A   Overcast
1:15 AM 37.4 °F - 32.0 °F 81% 30.06 in 10.0 mi Calm Calm - N/A   Overcast
1:35 AM 37.4 °F - 32.0 °F 81% 30.05 in 10.0 mi Calm Calm - N/A   Overcast
1:55 AM 35.6 °F - 32.0 °F 87% 30.05 in 10.0 mi Calm Calm - N/A   Overcast
2:15 AM 35.6 °F - 32.0 °F 87% 30.04 in 10.0 mi Calm Calm - N/A   Overcast
2:35 AM 37.4 °F - 32.0 °F 81% 30.04 in 10.0 mi Calm Calm - N/A   Overcast
2:55 AM 39.2 °F - 35.6 °F 87% 30.03 in 10.0 mi Calm Calm - N/A   Overcast
3:15 AM 39.2 °F - 35.6 °F 87% 30.04 in 10.0 mi Calm Calm - N/A   Overcast
3:35 AM 39.2 °F - 35.6 °F 87% 30.03 in 10.0 mi Calm Calm - N/A   Overcast
3:55 AM 39.2 °F - 35.6 °F 87% 30.02 in 10.0 mi Calm Calm - N/A   Overcast
4:15 AM 41.0 °F - 35.6 °F 81% 30.02 in 10.0 mi Calm Calm - N/A   Overcast
4:35 AM 41.0 °F - 35.6 °F 81% 30.01 in 10.0 mi Calm Calm - N/A   Overcast
4:55 AM 41.0 °F 39.0 °F 37.4 °F 87% 30.00 in 10.0 mi ENE 3.5 mph - N/A   Overcast
5:15 AM 44.6 °F 43.1 °F 39.2 °F 81% 29.99 in 10.0 mi ENE 3.5 mph - N/A   Overcast
5:35 AM 44.6 °F 43.1 °F 39.2 °F 81% 29.99 in 10.0 mi East 3.5 mph - N/A   Overcast
5:55 AM 44.6 °F 42.2 °F 39.2 °F 81% 29.99 in 10.0 mi East 4.6 mph - N/A   Overcast
6:15 AM 44.6 °F 40.7 °F 39.2 °F 81% 30.00 in 5.0 mi East 6.9 mph - N/A   Haze
6:35 AM 44.6 °F 41.4 °F 41.0 °F 87% 30.00 in 4.0 mi East 5.8 mph - N/A   Overcast
6:55 AM 44.6 °F 41.4 °F 41.0 °F 87% 30.00 in 2.5 mi ENE 5.8 mph - N/A   Overcast
7:15 AM 44.6 °F - 41.0 °F 87% 30.02 in 2.5 mi Calm Calm - N/A   Overcast
7:55 AM 44.6 °F - 42.8 °F 93% 30.02 in 2.5 mi Calm Calm - N/A Rain Light Rain
8:15 AM 44.6 °F 42.2 °F 42.8 °F 93% 30.03 in 3.0 mi North 4.6 mph - N/A   Overcast
8:35 AM 44.6 °F 42.2 °F 42.8 °F 93% 30.03 in 1.2 mi NNE 4.6 mph - N/A Rain Light Rain
8:55 AM 44.6 °F 42.2 °F 44.6 °F 100% 30.03 in 0.5 mi NNE 4.6 mph - 0.01 in   Overcast
9:55 AM 44.6 °F 42.2 °F 44.6 °F 100% 30.04 in 1.0 mi NNE 4.6 mph - N/A Rain Light Rain
10:15 AM 44.6 °F 42.2 °F 44.6 °F 100% 30.03 in 1.2 mi North 4.6 mph - N/A   Overcast
10:35 AM 46.4 °F 45.2 °F 46.4 °F 100% 30.03 in 1.2 mi North 3.5 mph - N/A   Overcast
10:55 AM 46.4 °F 44.3 °F 46.4 °F 100% 30.02 in 1.8 mi North 4.6 mph - N/A   Overcast
11:15 AM 46.4 °F 44.3 °F 46.4 °F 100% 30.01 in 0.8 mi North 4.6 mph - N/A Rain Light Rain
11:35 AM 46.4 °F 44.3 °F 46.4 °F 100% 30.01 in 0.8 mi North 4.6 mph - 0.01 in Rain Light Rain
11:55 AM 46.4 °F 42.9 °F 46.4 °F 100% 29.99 in 0.8 mi NNE 6.9 mph - 0.04 in Rain Light Rain
12:15 PM 46.4 °F 44.3 °F 46.4 °F 100% 29.99 in 1.2 mi NNE 4.6 mph - N/A Rain Light Rain
12:35 PM 46.4 °F 44.3 °F 46.4 °F 100% 29.98 in 1.0 mi NNE 4.6 mph - 0.01 in Rain Light Rain
12:55 PM 48.2 °F - 48.2 °F 100% 29.96 in 3.0 mi NE 8.1 mph - 0.02 in Rain Light Rain
1:15 PM 48.2 °F - 48.2 °F 100% 29.95 in 5.0 mi NE 6.9 mph - N/A   Overcast
1:35 PM 48.2 °F - 48.2 °F 100% 29.95 in 2.0 mi NE 4.6 mph - N/A Rain Light Rain
1:55 PM 48.2 °F - 48.2 °F 100% 29.94 in 1.2 mi ENE 9.2 mph - N/A Rain Light Rain
2:15 PM 48.2 °F - 48.2 °F 100% 29.93 in 1.8 mi NE 9.2 mph - N/A Rain Light Rain
2:35 PM 48.2 °F - 48.2 °F 100% 29.93 in 5.0 mi NE 6.9 mph - N/A Rain Light Rain
2:55 PM 48.2 °F - 48.2 °F 100% 29.93 in 10.0 mi NNE 9.2 mph - N/A Thunderstorm Overcast
3:15 PM 48.2 °F - 48.2 °F 100% 29.93 in 2.5 mi NNE 6.9 mph - N/A Rain Light Rain
3:35 PM 48.2 °F - 48.2 °F 100% 29.93 in 0.8 mi NE 5.8 mph - 0.04 in Rain Rain
3:55 PM 48.2 °F - 48.2 °F 100% 29.94 in 0.5 mi NE 3.5 mph - 0.05 in Rain Rain
4:15 PM 46.4 °F 44.3 °F 46.4 °F 100% 29.94 in 1.8 mi NNE 4.6 mph - 0.02 in Rain , Thunderstorm Light Rain
4:35 PM 46.4 °F - 46.4 °F 100% 29.97 in 0.5 mi Calm Calm - 0.06 in Rain Rain
4:55 PM 46.4 °F 43.5 °F 46.4 °F 100% 29.94 in 1.0 mi NE 5.8 mph - 0.09 in Rain Light Rain
5:15 PM 46.4 °F - 46.4 °F 100% 29.96 in 4.0 mi Calm Calm - N/A Rain Light Rain
5:35 PM 46.4 °F 42.4 °F 46.4 °F 100% 29.94 in 1.2 mi NE 8.1 mph - 0.24 in Rain , Thunderstorm Thunderstorms and Rain
5:55 PM 46.4 °F 43.5 °F 46.4 °F 100% 29.94 in 2.5 mi NE 5.8 mph - 0.30 in Rain , Thunderstorm Thunderstorms and Rain
6:55 PM 46.4 °F 42.9 °F 46.4 °F 100% 30.00 in 10.0 mi NNW 6.9 mph - 0.02 in Thunderstorm Thunderstorm
7:35 PM 46.4 °F 41.5 °F 46.4 °F 100% 29.96 in 8.0 mi NNE 10.4 mph - N/A Rain Light Rain
7:55 PM 46.4 °F 44.3 °F 46.4 °F 100% 29.98 in 9.0 mi NE 4.6 mph - 0.03 in Rain , Thunderstorm Light Rain
8:15 PM 46.4 °F 41.5 °F 46.4 °F 100% 29.99 in 6.0 mi NE 10.4 mph - N/A Rain Light Rain
8:55 PM 48.2 °F - 46.4 °F 93% 29.99 in 3.0 mi North 10.4 mph - 0.09 in Rain Light Rain
9:35 PM 48.2 °F - 46.4 °F 93% 30.03 in 8.0 mi ENE 3.5 mph - N/A Rain Light Rain
9:55 PM 48.2 °F - 46.4 °F 93% 30.01 in 4.0 mi North - - 0.03 in Rain Light Rain
10:15 PM 46.4 °F 44.3 °F 46.4 °F 100% 30.03 in 3.0 mi North 4.6 mph - 0.02 in Rain Rain
10:35 PM 48.2 °F - 48.2 °F 100% 30.04 in 5.0 mi North - - 0.03 in Rain Light Rain
10:55 PM 48.2 °F - 48.2 °F 100% 30.06 in 3.0 mi North - - 0.06 in Rain Rain
11:15 PM 46.4 °F - 46.4 °F 100% 30.05 in 1.8 mi North - - 0.10 in Rain Heavy Rain
11:35 PM 48.2 °F - 48.2 °F 100% 30.06 in 1.8 mi North 9.2 mph - 0.27 in Rain Heavy Rain
11:55 PM 48.2 °F - 48.2 °F 100% 30.05 in 3.0 mi NNE 10.4 mph - 0.38 in Rain Rain